FW6283 Weather Reports


time (UTC)temp
F
wind
direction
speed
knots
gust
knots
rain 1hr
in
rain 24hr
in
rain mn
in
humidity
%
barometer
mb
20260505091552 46 214 4.3 18.2 0.00 0.43 0.00 82 1008.1
20260505090051 44 214 4.3 10.4 0.00 0.43 0.00 84 1007.9
20260505084536 44 227 1.7 6.1 0.00 0.44 0.00 83 1007.7
20260505083039 45 221 3.5 11.3 0.00 0.44 0.00 83 1007.6
20260505081543 45 237 4.3 16.5 0.00 0.44 0.00 83 1007.4
20260505080037 46 289 5.2 20.9 0.00 0.44 0.00 82 1007.3
20260505074523 46 186 9.6 22.6 0.00 0.47 0.00 82 1007.2
20260505073020 46 211 7.0 15.6 0.00 0.47 0.00 82 1007.1
20260505071526 46 226 7.0 16.5 0.00 0.47 0.00 81 1006.8
20260505070018 46 208 10.4 20.9 0.00 0.47 0.00 81 1006.6
20260505064514 47 193 10.4 24.3 0.00 0.49 0.00 81 1006.2
20260505063012 46 226 10.4 20.0 0.00 0.49 0.00 81 1006.0
20260505061523 46 256 8.7 20.9 0.00 0.49 0.00 81 1005.7
20260505060007 47 225 8.7 23.5 0.00 0.49 0.00 81 1005.5
20260505054504 47 247 8.7 17.4 0.00 0.49 0.00 81 1005.2
20260505053003 47 219 6.1 18.2 0.00 0.49 0.00 81 1005.0
20260505051600 47 222 6.1 15.6 0.00 0.49 0.00 81 1004.9
20260505041551 47 254 6.1 13.9 0.00 0.49 0.00 83 1004.3
20260505040050 47 231 7.0 12.2 0.00 0.49 0.00 83 1004.3
20260505034549 47 181 4.3 14.8 0.00 0.49 0.00 83 1004.2
20260505033051 47 242 7.0 17.4 0.00 0.49 0.00 84 1004.1
20260505031543 46 221 5.2 17.4 0.00 0.49 0.00 83 1003.7
20260505030039 48 244 10.4 16.5 0.00 0.49 0.00 80 1003.6
20260505024601 48 215 5.2 14.8 0.00 0.50 0.49 79 1003.4
20260505023039 49 234 8.7 17.4 0.00 0.50 0.49 76 1003.0
20260505021546 49 210 6.1 15.6 0.00 0.50 0.49 74 1003.1
20260505020039 49 262 6.1 11.3 0.00 0.50 0.49 73 1003.0
20260505014531 49 216 3.5 13.0 0.00 0.79 0.49 71 1002.5
20260505013032 50 217 7.8 20.0 0.00 0.79 0.49 71 1002.4
20260505011547 48 278 7.0 20.0 0.00 0.79 0.49 73 1002.3
20260505010030 46 189 2.6 8.7 0.00 0.79 0.49 74 1002.0
20260505004538 45 198 0.9 4.3 0.00 1.12 0.49 74 1002.0
20260505003028 46 181 1.7 3.5 0.00 1.12 0.49 73 1002.0
20260505001527 45 195 1.7 9.6 0.00 1.12 0.49 74 1002.0
20260505000026 45 162 1.7 5.2 0.00 1.12 0.49 72 1002.0
20260504234524 46 160 1.7 6.1 0.00 1.31 0.49 71 1001.7
20260504233023 47 213 0.0 7.0 0.00 1.31 0.49 67 1001.2
20260504231521 47 202 0.9 4.3 0.00 1.31 0.49 67 1001.1
20260504230021 49 104 3.5 13.0 0.00 1.31 0.49 64 1000.7
20260504224522 49 251 6.1 20.9 0.00 1.61 0.49 63 1000.5
20260504223018 50 214 6.1 10.4 0.00 1.61 0.49 63 1000.6
20260504221516 51 210 4.3 13.0 0.00 1.61 0.49 64 1000.3
20260504220021 51 224 3.5 13.9 0.00 1.72 0.49 64 1000.0
20260504214512 51 239 3.5 13.9 0.00 1.72 0.49 65 999.8
20260504213010 51 358 6.1 17.4 0.00 1.72 0.49 64 999.5
20260504211509 51 219 8.7 20.9 0.00 1.72 0.49 65 999.6
20260504210010 51 259 7.8 18.2 0.00 1.79 0.49 66 999.3
20260504204514 51 279 8.7 20.9 0.00 1.79 0.49 66 999.2
20260504203004 51 250 6.1 18.2 0.00 1.79 0.49 69 999.3
20260504201502 51 243 8.7 24.3 0.00 1.79 0.49 68 998.8
20260504200111 51 260 6.1 29.5 0.00 1.79 0.49 68 998.6
20260504194557 51 238 11.3 26.9 0.00 1.85 0.49 70 998.1
20260504193055 51 199 12.2 26.9 0.00 1.85 0.49 72 997.9
20260504191551 49 247 9.6 25.2 0.00 1.85 0.49 75 997.6
20260504190050 49 197 7.8 24.3 0.00 1.85 0.49 78 997.2
20260504184555 48 250 12.2 24.3 0.00 1.85 0.49 76 996.9
20260504183045 48 285 12.2 26.1 0.00 1.85 0.49 79 996.8
20260504181545 47 233 9.6 26.9 0.00 1.85 0.49 82 996.2
20260504180041 47 269 11.3 27.8 0.00 1.85 0.49 82 995.9
20260504174537 47 214 12.2 25.2 0.00 1.85 0.49 85 995.7
20260504173033 45 257 11.3 30.4 0.00 1.85 0.49 86 995.7
20260504171530 44 270 14.8 31.3 0.00 1.85 0.49 86 995.2